�N����,����,�~����,�C��,���x,�C��,����,���ϕ���,�ő�u�ԕ���,�ő厞����,���˗�,�I�_���x,�n�����x,�ő啗���N��,DTYPE
"23/07/12","00:10",0.0,24.4,89.4,1003.6,328.9,1.2,2.2,321.9,0.00,22.6,24.7,"00:05:44",1
"23/07/12","00:20",0.0,24.2,89.6,1003.6,300.1,0.8,1.6,329.9,0.00,22.4,25.0,"00:10:16",1
"23/07/12","00:30",0.0,24.1,89.7,1003.8,276.0,0.6,1.1,302.2,0.00,22.3,24.7,"00:20:32",1
"23/07/12","00:40",0.0,24.0,89.9,1003.4,326.4,1.0,1.6,327.1,0.00,22.3,24.7,"00:38:00",1
"23/07/12","00:50",0.0,23.9,90.0,1003.4,305.3,0.8,1.3,333.4,0.00,22.2,24.7,"00:40:24",1
"23/07/12","01:00",0.0,23.9,90.3,1003.4,289.6,1.0,2.0,332.5,0.00,22.3,24.5,"00:58:08",1
"23/07/12","01:10",0.0,23.9,90.5,1003.4,333.7,1.2,1.8,330.7,0.00,22.3,24.6,"01:00:32",1
"23/07/12","01:20",0.0,23.8,90.5,1003.6,323.8,0.8,1.6,325.3,0.00,22.2,24.5,"01:10:48",1
"23/07/12","01:30",0.0,23.7,90.8,1003.4,274.9,0.7,1.3,264.0,0.00,22.1,24.6,"01:29:44",1
"23/07/12","01:40",0.0,23.6,90.9,1002.9,306.1,0.7,1.1,311.7,0.00,22.1,24.7,"01:35:44",1
"23/07/12","01:50",0.0,23.6,91.1,1003.1,321.7,1.1,1.6,334.0,0.00,22.1,24.4,"01:47:36",1
"23/07/12","02:00",0.0,23.3,91.2,1002.9,303.4,0.7,1.1,337.5,0.00,21.8,24.5,"01:50:16",1
"23/07/12","02:10",0.0,23.3,91.5,1003.1,295.8,0.8,1.2,308.5,0.00,21.9,24.4,"02:04:08",1
"23/07/12","02:20",0.0,23.2,91.7,1002.9,291.1,0.5,1.3,323.0,0.00,21.8,24.3,"02:18:56",1
"23/07/12","02:30",0.0,23.2,91.8,1002.6,325.4,1.0,1.6,325.4,0.00,21.8,24.3,"02:20:32",1
"23/07/12","02:40",0.0,22.9,92.0,1002.6,291.2,0.6,1.2,321.5,0.00,21.6,24.4,"02:31:12",1
"23/07/12","02:50",0.0,23.1,92.3,1002.9,294.9,1.1,1.9,333.4,0.00,21.8,24.4,"02:40:56",1
"23/07/12","03:00",0.0,23.2,92.4,1002.9,293.5,1.0,1.7,317.7,0.00,21.9,24.4,"02:50:56",1
"23/07/12","03:10",0.0,23.3,92.6,1002.9,323.5,1.2,2.0,319.6,0.00,22.1,24.2,"03:06:32",1
"23/07/12","03:20",0.0,23.3,92.7,1002.9,320.2,0.7,1.3,354.6,0.00,22.1,24.2,"03:18:08",1
"23/07/12","03:30",0.0,23.2,92.8,1002.9,297.5,1.0,1.4,267.3,0.00,22.0,24.2,"03:23:12",1
"23/07/12","03:40",0.0,23.1,92.9,1002.9,305.0,0.6,1.0,276.2,0.00,21.9,24.2,"03:36:32",1
"23/07/12","03:50",0.0,23.1,93.1,1002.9,300.5,1.1,1.7,259.0,0.00,22.0,24.2,"03:48:08",1
"23/07/12","04:00",0.0,23.0,93.2,1002.9,301.6,0.8,1.2,312.9,0.00,21.9,24.2,"03:52:48",1
"23/07/12","04:10",0.0,22.9,93.3,1003.1,290.6,0.7,1.2,264.9,0.00,21.8,24.1,"04:04:56",1
"23/07/12","04:20",0.0,22.8,93.5,1003.1,327.9,1.0,1.4,328.0,0.00,21.7,24.0,"04:18:08",1
"23/07/12","04:30",0.0,22.9,93.5,1003.4,311.9,1.1,1.6,259.5,0.00,21.8,24.2,"04:27:44",1
"23/07/12","04:40",0.0,22.8,93.7,1003.4,294.1,1.0,1.7,315.2,0.00,21.8,24.1,"04:39:12",1
"23/07/12","04:50",0.0,22.7,93.8,1003.1,300.1,1.0,1.4,322.5,0.00,21.7,24.2,"04:42:16",1
"23/07/12","05:00",0.0,22.7,93.9,1002.9,317.9,1.1,1.6,328.9,0.00,21.7,24.0,"04:51:04",1
"23/07/12","05:10",0.0,22.8,94.1,1003.6,292.7,1.0,1.3,321.8,0.00,21.8,23.9,"05:06:48",1
"23/07/12","05:20",0.0,22.9,94.1,1003.1,308.3,1.1,1.7,329.6,0.00,21.9,24.1,"05:15:04",1
"23/07/12","05:30",0.0,23.0,94.2,1003.4,309.9,0.8,1.3,321.9,0.00,22.1,24.0,"05:21:28",1
"23/07/12","05:40",0.0,23.1,94.2,1003.4,332.3,0.8,1.2,317.7,0.00,22.2,23.9,"05:30:08",1
"23/07/12","05:50",0.0,23.3,94.2,1003.4,293.3,0.3,1.1,329.5,0.01,22.4,23.9,"05:40:24",1
"23/07/12","06:00",0.0,23.7,94.3,1003.6,344.3,0.7,1.2,346.1,0.02,22.8,23.8,"05:59:28",1
"23/07/12","06:10",0.0,24.2,94.4,1003.4,328.7,1.0,1.8,343.8,0.03,23.3,23.8,"06:05:04",1
"23/07/12","06:20",0.0,24.9,94.2,1003.4,253.9,0.5,1.0,226.9,0.05,23.9,23.9,"06:14:16",1
"23/07/12","06:30",0.0,25.5,94.1,1002.9,232.5,0.3,1.3,209.1,0.06,24.5,23.8,"06:23:36",1
"23/07/12","06:40",0.0,26.3,93.8,1003.6,20.3,0.5,1.2,356.7,0.08,25.3,23.7,"06:37:20",1
"23/07/12","06:50",0.0,26.1,92.6,1003.4,11.5,0.7,1.3,12.8,0.11,24.8,23.7,"06:44:32",1
"23/07/12","07:00",0.0,27.4,92.1,1003.1,13.3,0.2,0.8,3.4,0.14,26.0,23.7,"06:50:08",1
"23/07/12","07:10",0.0,27.0,90.4,1002.6,290.6,0.3,1.0,231.1,0.16,25.3,23.8,"07:06:56",1
"23/07/12","07:20",0.0,27.7,88.3,1002.9,0.1,0.7,1.7,8.4,0.16,25.6,23.8,"07:13:52",1
"23/07/12","07:30",0.0,28.3,84.8,1003.1,3.9,0.7,1.3,350.6,0.17,25.5,23.7,"07:21:28",1
"23/07/12","07:40",0.0,29.2,81.1,1003.6,17.4,0.6,1.9,354.5,0.21,25.7,24.1,"07:35:44",1
"23/07/12","07:50",0.0,29.7,77.6,1003.8,17.5,0.7,2.4,2.8,0.20,25.4,24.1,"07:44:40",1
"23/07/12","08:00",0.0,30.4,75.3,1003.8,73.5,0.7,1.7,24.7,0.23,25.6,24.0,"07:50:32",1
"23/07/12","08:10",0.0,30.8,72.6,1004.3,53.8,0.8,2.2,7.3,0.22,25.3,23.8,"08:04:16",1
"23/07/12","08:20",0.0,30.2,73.0,1003.8,44.5,0.8,2.4,354.9,0.13,24.9,24.1,"08:17:52",1
"23/07/12","08:30",0.0,29.9,74.2,1003.8,8.9,0.8,2.0,347.1,0.14,24.8,24.1,"08:22:00",1
"23/07/12","08:40",0.0,30.1,74.9,1003.4,9.7,0.7,2.0,14.0,0.16,25.2,24.0,"08:32:56",1
"23/07/12","08:50",0.0,30.6,73.9,1004.1,33.3,0.7,1.6,90.3,0.21,25.5,23.8,"08:40:16",1
"23/07/12","09:00",0.0,30.9,72.6,1003.8,51.7,0.5,1.3,31.8,0.18,25.4,24.1,"08:57:52",1
"23/07/12","09:10",0.0,30.6,71.7,1003.8,339.8,1.1,3.6,233.5,0.14,24.9,24.1,"09:00:02",1
"23/07/12","09:20",0.0,30.8,72.2,1003.8,281.8,1.1,3.3,238.4,0.26,25.3,24.2,"09:10:08",1
"23/07/12","09:30",0.0,30.7,73.0,1003.8,309.4,1.6,3.9,196.8,0.15,25.3,24.2,"09:21:20",1
"23/07/12","09:40",0.0,30.5,72.6,1003.4,306.2,1.6,3.4,224.9,0.16,25.1,24.2,"09:31:12",1
"23/07/12","09:50",0.0,30.7,73.0,1003.4,274.7,1.7,3.9,212.6,0.25,25.3,23.9,"09:49:44",1
"23/07/12","10:00",0.0,31.2,72.6,1003.4,267.0,1.5,4.0,205.8,0.33,25.7,24.2,"09:50:08",1
"23/07/12","10:10",0.0,32.0,70.0,1004.3,217.2,1.0,2.8,231.6,0.42,25.9,24.1,"10:01:36",1
"23/07/12","10:20",0.0,31.8,68.6,1004.5,224.8,1.7,4.1,213.1,0.34,25.3,24.1,"10:13:12",1
"23/07/12","10:30",0.0,32.0,69.2,1004.5,220.4,2.0,6.0,210.9,0.35,25.7,24.4,"10:27:12",1
"23/07/12","10:40",0.0,31.9,68.9,1004.3,221.9,2.2,4.3,219.0,0.34,25.5,24.3,"10:36:56",1
"23/07/12","10:50",0.0,32.1,68.1,1004.3,215.7,2.2,4.7,217.9,0.40,25.5,24.5,"10:44:08",1
"23/07/12","11:00",0.0,32.9,65.6,1004.3,227.9,2.1,4.8,197.4,0.60,25.6,24.6,"10:58:32",1
"23/07/12","11:10",0.0,32.5,65.2,1004.1,230.6,2.1,5.5,209.7,0.35,25.2,24.7,"11:02:16",1
"23/07/12","11:20",0.0,33.3,63.3,1003.8,253.0,1.5,4.8,251.5,0.59,25.4,24.5,"11:11:44",1
"23/07/12","11:30",0.0,32.8,63.8,1003.6,247.8,1.8,4.4,232.8,0.31,25.1,24.9,"11:21:12",1
"23/07/12","11:40",0.0,33.2,63.7,1003.4,245.4,1.8,5.5,317.9,0.52,25.4,24.9,"11:39:12",1
"23/07/12","11:50",0.0,34.0,62.9,1004.1,218.4,1.2,2.7,235.7,0.59,26.0,24.8,"11:47:36",1
"23/07/12","12:00",0.0,33.4,61.8,1003.8,280.6,1.6,3.5,226.4,0.33,25.1,24.9,"11:55:28",1
"23/07/12","12:10",0.0,33.4,63.1,1003.1,252.9,1.5,3.3,235.7,0.43,25.5,24.9,"12:04:32",1
"23/07/12","12:20",0.0,33.4,62.4,1003.1,232.9,2.0,5.6,238.8,0.44,25.3,25.1,"12:11:04",1
"23/07/12","12:30",0.0,33.4,61.8,1002.9,209.6,2.5,5.0,187.2,0.53,25.1,25.2,"12:29:12",1
"23/07/12","12:40",0.0,33.3,63.3,1002.6,219.5,2.0,4.4,223.7,0.45,25.4,25.2,"12:31:52",1
"23/07/12","12:50",0.0,33.5,63.2,1002.4,200.0,2.0,7.1,235.3,0.46,25.6,25.4,"12:40:02",1
"23/07/12","13:00",0.0,32.6,64.2,1002.4,233.0,2.2,5.4,208.8,0.23,25.0,25.3,"12:50:08",1
"23/07/12","13:10",0.0,31.4,62.8,1001.9,261.2,2.2,5.4,303.3,0.12,23.5,25.3,"13:06:40",1
"23/07/12","13:20",0.0,30.3,64.1,1001.2,348.6,3.0,6.0,340.6,0.25,22.8,25.8,"13:14:48",1
"23/07/12","13:30",0.0,30.8,61.9,1001.0,339.2,1.6,3.2,354.5,0.35,22.7,25.4,"13:22:56",1
"23/07/12","13:40",0.0,32.0,61.6,1001.2,260.0,1.6,5.1,230.5,0.52,23.7,25.4,"13:39:12",1
"23/07/12","13:50",0.0,32.3,61.7,1001.2,225.4,2.1,4.4,229.6,0.51,24.0,25.4,"13:43:52",1
"23/07/12","14:00",0.0,32.1,62.5,1001.7,243.9,1.6,4.8,232.6,0.26,24.1,25.6,"13:59:44",1
"23/07/12","14:10",0.0,32.4,62.8,1001.9,247.8,1.6,4.4,229.6,0.30,24.4,25.6,"14:00:32",1
"23/07/12","14:20",0.0,32.9,65.2,1001.5,273.4,1.0,4.5,226.2,0.32,25.5,25.6,"14:10:40",1
"23/07/12","14:30",0.0,33.5,63.3,1001.7,235.6,1.6,5.0,212.3,0.39,25.6,25.8,"14:26:40",1
"23/07/12","14:40",0.0,32.6,64.2,1001.9,212.8,1.5,2.9,207.0,0.22,25.0,25.7,"14:34:16",1
"23/07/12","14:50",0.0,31.6,67.1,1001.5,220.9,2.1,4.1,331.8,0.04,24.8,25.9,"14:43:52",1
"23/07/12","15:00",0.0,31.1,68.4,1001.2,223.6,2.1,4.1,214.2,0.04,24.6,25.7,"14:53:28",1
"23/07/12","15:10",0.0,30.2,66.3,1001.0,310.2,2.7,5.7,352.7,0.01,23.3,25.6,"15:07:28",1
"23/07/12","15:20",0.0,29.3,67.6,1001.2,339.1,2.5,5.5,330.3,0.01,22.7,25.7,"15:10:02",1
"23/07/12","15:30",2.2,26.8,72.9,1001.0,327.0,4.5,8.9,332.3,0.00,21.6,25.8,"15:23:52",1
"23/07/12","15:40",1.4,24.6,80.9,1001.2,314.1,3.1,7.5,334.6,0.00,21.1,25.9,"15:35:04",1
"23/07/12","15:50",1.2,24.1,84.4,1000.8,301.6,2.1,4.8,324.3,0.00,21.3,25.5,"15:46:16",1
"23/07/12","16:00",0.4,24.0,86.4,1001.2,309.5,1.6,4.1,319.1,0.02,21.6,25.6,"15:51:04",1
"23/07/12","16:10",0.2,24.2,87.5,1001.5,296.8,1.3,2.6,336.7,0.09,22.0,25.6,"16:09:20",1
"23/07/12","16:20",0.0,24.6,88.2,1001.7,336.3,1.5,3.3,346.4,0.13,22.6,25.5,"16:11:04",1
"23/07/12","16:30",0.0,25.2,88.4,1001.7,334.8,1.1,2.4,341.7,0.25,23.2,25.5,"16:21:44",1
"23/07/12","16:40",0.0,26.1,88.2,1001.5,324.2,1.0,2.4,329.8,0.29,24.0,25.6,"16:34:48",1
"23/07/12","16:50",0.0,26.0,86.8,1001.7,109.2,0.6,1.8,24.9,0.08,23.7,25.6,"16:40:56",1
"23/07/12","17:00",0.0,25.8,86.8,1002.2,31.7,0.7,1.8,358.3,0.04,23.5,25.5,"16:56:32",1
"23/07/12","17:10",0.0,25.8,87.0,1001.7,2.5,0.8,2.1,3.5,0.04,23.5,25.3,"17:01:04",1
"23/07/12","17:20",0.0,25.9,87.2,1001.9,343.7,0.6,1.7,342.7,0.02,23.6,25.4,"17:17:44",1
"23/07/12","17:30",0.0,25.6,87.8,1001.7,339.6,1.0,1.6,346.3,0.01,23.5,25.3,"17:22:56",1
"23/07/12","17:40",0.2,25.7,88.5,1001.5,350.4,0.7,1.3,335.7,0.08,23.7,25.3,"17:30:16",1
"23/07/12","17:50",0.0,25.9,88.6,1001.5,345.2,0.7,1.7,350.0,0.08,23.9,25.4,"17:44:00",1
"23/07/12","18:00",0.0,25.7,88.9,1001.5,245.8,0.3,0.9,241.3,0.03,23.8,25.5,"17:52:16",1
"23/07/12","18:10",0.0,25.4,89.4,1001.9,320.1,1.1,2.1,332.9,0.03,23.6,25.3,"18:02:08",1
"23/07/12","18:20",0.0,25.3,89.6,1001.9,296.0,0.6,1.3,339.9,0.02,23.5,25.2,"18:11:04",1
"23/07/12","18:30",0.0,25.2,89.9,1002.4,314.2,1.0,2.1,336.5,0.00,23.5,25.4,"18:26:16",1
"23/07/12","18:40",0.0,25.3,90.1,1001.9,3.7,0.8,1.7,354.6,0.00,23.6,25.2,"18:30:40",1
"23/07/12","18:50",0.0,25.0,90.6,1002.2,356.1,0.8,1.8,346.8,0.00,23.4,25.4,"18:43:04",1
"23/07/12","19:00",0.0,24.8,90.8,1002.4,338.7,0.6,1.3,328.5,0.00,23.2,25.3,"18:54:24",1
"23/07/12","19:10",0.0,24.8,91.2,1002.4,318.6,0.8,1.0,340.2,0.00,23.3,25.1,"19:01:12",1
"23/07/12","19:20",0.0,24.8,91.5,1002.4,350.5,1.0,2.2,339.6,0.00,23.4,25.1,"19:19:44",1
"23/07/12","19:30",0.0,24.6,91.7,1002.6,301.7,1.0,1.6,339.1,0.00,23.2,25.1,"19:20:56",1
"23/07/12","19:40",0.0,24.5,92.0,1002.9,285.8,0.7,1.1,264.3,0.00,23.2,25.3,"19:38:24",1
"23/07/12","19:50",0.0,24.5,92.2,1002.9,269.2,1.0,2.0,245.3,0.00,23.2,25.2,"19:41:36",1
"23/07/12","20:00",0.0,24.5,92.4,1002.6,333.0,1.1,2.0,343.7,0.00,23.2,25.0,"19:51:12",1
"23/07/12","20:10",0.0,24.4,92.6,1003.1,333.8,1.2,1.9,326.5,0.00,23.2,25.1,"20:06:24",1
"23/07/12","20:20",0.0,24.3,92.8,1002.9,334.5,1.0,1.8,337.9,0.00,23.1,25.2,"20:16:40",1
"23/07/12","20:30",0.0,24.2,92.9,1002.6,325.6,0.7,1.2,337.0,0.00,23.0,25.2,"20:21:12",1
"23/07/12","20:40",0.0,24.2,93.1,1002.6,313.9,0.7,1.4,331.0,0.00,23.1,25.2,"20:39:52",1
"23/07/12","20:50",0.0,24.2,93.3,1003.4,307.7,1.0,1.9,322.7,0.00,23.1,25.0,"20:49:04",1
"23/07/12","21:00",0.0,24.2,93.4,1003.4,316.8,1.2,1.8,339.8,0.00,23.1,25.0,"20:52:40",1
"23/07/12","21:10",0.0,24.1,93.5,1003.1,314.4,1.0,1.6,340.6,0.00,23.0,24.9,"21:00:02",1
"23/07/12","21:20",0.0,24.0,93.6,1003.1,344.5,1.1,1.4,332.5,0.00,22.9,25.0,"21:10:16",1
"23/07/12","21:30",0.0,23.9,93.7,1003.4,314.2,0.8,1.7,325.6,0.00,22.9,25.0,"21:20:24",1
"23/07/12","21:40",0.0,23.9,93.9,1003.6,324.7,0.8,1.1,314.1,0.00,22.9,24.9,"21:32:48",1
"23/07/12","21:50",0.0,23.9,94.0,1003.4,305.1,0.6,1.9,327.7,0.00,22.9,24.9,"21:49:12",1
"23/07/12","22:00",0.0,23.8,94.0,1003.1,304.6,0.8,1.1,319.3,0.00,22.8,24.9,"21:57:20",1
"23/07/12","22:10",0.0,23.9,94.2,1003.1,306.1,0.8,1.3,320.6,0.00,22.9,24.7,"22:09:04",1
"23/07/12","22:20",0.0,24.0,94.2,1003.1,319.0,0.8,1.4,338.4,0.00,23.0,24.8,"22:17:52",1
"23/07/12","22:30",0.0,24.0,94.2,1002.6,341.7,1.1,1.8,346.0,0.00,23.0,24.9,"22:21:36",1
"23/07/12","22:40",0.0,24.0,94.4,1002.9,321.7,1.1,1.7,341.2,0.00,23.1,24.7,"22:36:00",1
"23/07/12","22:50",0.0,24.1,94.4,1003.1,296.2,1.0,1.6,317.7,0.00,23.2,24.7,"22:48:00",1
"23/07/12","23:00",0.0,24.0,94.5,1003.1,296.8,1.0,1.4,301.5,0.00,23.1,24.7,"22:50:48",1
"23/07/12","23:10",0.0,24.0,94.6,1003.1,300.9,0.7,1.6,321.8,0.00,23.1,24.7,"23:01:04",1
"23/07/12","23:20",0.0,24.0,94.6,1003.1,293.9,0.3,0.9,311.3,0.00,23.1,24.7,"23:13:52",1
"23/07/12","23:30",0.0,24.0,94.6,1003.1,325.8,0.8,1.2,333.3,0.00,23.1,24.5,"23:25:36",1
"23/07/12","23:40",0.0,24.1,94.7,1002.9,328.3,0.8,1.7,341.2,0.00,23.2,24.7,"23:36:08",1
"23/07/12","23:50",0.0,24.0,94.7,1002.9,316.6,0.8,1.6,339.8,0.00,23.1,24.6,"23:40:32",1
"23/07/12","24:00",0.0,23.8,94.8,1002.9,273.6,0.5,1.3,330.4,0.00,23.0,24.6,"23:56:32",1
